Regional Weather Roundup
Issued by NWS State College, PA

Home | Current Version | Previous Version | Text Only | Print | Product List | Glossary On
Versions: 1 2 3 4 5 6 7 8 9 10 11 12 13 14 15 16 17 18 19 20 21 22 23 24 25 26 27 28 29 30 31 32 33 34 35 36 37 38 39 40 41 42 43 44 45 46 47 48 49 50
000
ASUS41 KCTP 070003
RWRCTP

REGIONAL WEATHER ROUNDUP
NATIONAL WEATHER SERVICE STATE COLLEGE PA
800 PM EDT MON JUL 06 2015

Note: "fair" indicates few or no clouds below 12,000 feet with no
significant weather and/or obstructions to visibility.

* = STATION THAT DOES NOT REPORT PRECIPITATION /E.G. RAIN...SNOW...ETC/
    THUNDER OR FOG.

PAZ002>004-007>009-013>016-020>023-029>032-070100-
WESTERN PENNSYLVANIA

CITY           SKY/WX    TMP DP  RH WIND       PRES   REMARKS
ERIE           MOCLDY    75  63  66 NW9       30.00F
MEADVILLE      LGT RAIN  76  66  71 VRB3      30.03S
FRANKLIN*      MOCLDY    75  66  73 SE3       30.05S
NEW CASTLE     FAIR      77  71  81 CALM      30.02S
BEAVER COUNTY  CLEAR     75  68  78 CALM      30.03S
BUTLER*        CLOUDY    75  66  73 CALM      30.05R
PITTSBURGH INT CLOUDY    76  68  76 SW7       30.02S
PITTSBURGH     MOCLDY    75  66  73 S6        30.02S
INDIANA*       CLEAR     75  70  83 CALM      30.07S
LATROBE        NOT AVBL
WASHINGTON CO* NOT AVBL
$$

PAZ004>006-010>012-017>019-024>028-033>037-041-042-045-046-049>053-070100-
CENTRAL PENNSYLVANIA

CITY           SKY/WX    TMP DP  RH WIND       PRES   REMARKS
BRADFORD       PTCLDY    73  65  75 S3        30.09S
DUBOIS         PTCLDY    75  67  76 S3        30.05F
CLEARFIELD     MOCLDY    73  69  87 E3        30.05F
JOHNSTOWN      PTCLDY    71  65  81 S9        30.07F
ALTOONA        PTCLDY    73  69  87 E3        30.06F
STATE COLLEGE  PTCLDY    72  70  94 CALM      30.06S
WILLIAMSPORT   PTCLDY    79  68  69 SE7       30.02S
SELINSGROVE    PTCLDY    78  72  81 CALM      30.04S
FT INDIANTOWN  NOT AVBL
CAPITAL CITY   CLOUDY    78  70  76 S3        30.02F
HARRISBURG     LGT RAIN  77  70  79 S9        30.02F
YORK           MOCLDY    74  70  87 SE6       30.04F
$$

PAZ038>040-043-044-047-048-054-055-060>062-067>071-070100-
EASTERN PENNSYLVANIA

CITY           SKY/WX    TMP DP  RH WIND       PRES   REMARKS
SCRANTON       MOCLDY    78  65  63 VRB7      30.07F
MOUNT POCONO   MOCLDY    71  64  78 SE8       30.14F
ALLENTOWN      PTCLDY    78  71  79 E12       30.07S
QUAKERTOWN*    MOCLDY    77  72  83 S13G20    30.10R
READING        PTCLDY    75  70  84 CALM      30.04F
LANCASTER      MOCLDY    78  72  81 SE8       30.04F
COATESVILLE    PTCLDY    75  73  94 CALM      30.08F
POTTSTOWN      PTCLDY    75  72  90 NE3       30.08F
BLUE BELL      MOCLDY    81  72  74 CALM      30.06S
DOYLESTOWN     MOCLDY    77  71  82 VRB5      30.07S
WILLOW GROVE   NOT AVBL
NORTH PHILA    MOCLDY    82  68  62 SE8       30.08S
PHILADELPHIA   MOCLDY    82  72  71 SE8       30.06S THUNDER
$$



USA.gov is the U.S. government's official web portal to all federal, state and local government web resources and services.